Home > Weather > Reims > Past weeks

Flag for France Past Weather in Reims, Champagne-Ardenne, France — Yesterday and Last 2 Weeks

Now
73 °F

Sunny.


Feels Like: 77 °F
Forecast: 58 / 73 °F
Wind: 12 mph from Southwest

Location: Chalons-Vatry

Current Time: Aug 28, 2016 at 8:56:58 PM

Latest Report: Aug 28, 2016 at 8:30 PM


Visibility: 10 mi

Pressure: 30.04 "Hg

Humidity: 57%

Dew Point: 57 °F

Location of ReimsLocation

Past Weather in Reims — Graph

°F

Reims Temperature Yesterday

Maximum temperature yesterday: 95 °F (at 4:00 PM)
Minimum temperature yesterday: 66 °F (at 6:30 AM)
Average temperature yesterday: 80 °F

High & Low Weather Summary for the Past Weeks

 TemperatureHumidityPressure
High97 °F (Aug 26, 5:00 PM)100% (Aug 15, 7:00 AM)30.36 "Hg (Aug 15, 7:00 AM)
Low54 °F (Aug 21, 3:00 AM)28% (Aug 27, 4:00 PM)29.80 "Hg (Aug 17, 6:00 PM)
Average71 °F68%30.05 "Hg
* Reported Aug 13 7:00 PM — Aug 28 7:30 PM, Reims, Weather by CustomWeather, © 2016

Note: Actual official high and low records may vary slightly from our data, if they occured in-between our weather recording intervals... More about our weather records

Advertising

Reims Weather History for the Previous 24 Hours

Scroll right to see more
 ConditionsComfort  
Time TempWeatherWind HumidityBarometerVisibility
7:30 PM
Sun, Aug 28
75 °FSunny.15 mph57%30.04 "Hg10 mi
7:00 PM77 °FSunny.17 mph54%30.04 "Hg10 mi
6:30 PM79 °FPassing clouds.17 mph51%30.04 "HgN/A
6:00 PM79 °FScattered clouds.17 mph51%30.04 "HgN/A
5:30 PM81 °FScattered clouds.15 mph51%30.04 "HgN/A
5:00 PM79 °FBroken clouds.15 mph54%30.04 "HgN/A
4:30 PM79 °FPartly sunny.13 mph58%30.04 "HgN/A
4:00 PM79 °FPartly sunny.15 mph58%30.04 "HgN/A
3:30 PM75 °FBroken clouds.14 mph65%30.07 "HgN/A
3:00 PM75 °FPartly sunny.15 mph65%30.07 "HgN/A
2:30 PM73 °FBroken clouds.15 mph69%30.07 "HgN/A
2:00 PM75 °FPartly sunny.14 mph69%30.07 "HgN/A
1:30 PM72 °FPartly sunny.13 mph78%30.07 "HgN/A
1:00 PM72 °FBroken clouds.12 mph78%30.07 "HgN/A
12:30 PM72 °FMore clouds than sun.9 mph78%30.04 "HgN/A
12:00 PM73 °FPartly sunny.10 mph74%30.04 "HgN/A
11:30 AM72 °FMore clouds than sun.12 mph78%30.04 "HgN/A
11:00 AM73 °FMild.14 mph69%30.04 "HgN/A
10:30 AM72 °FSunny.15 mph73%30.01 "Hg10 mi
10:00 AM73 °FSunny.14 mph69%30.01 "Hg10 mi
9:30 AM72 °FSunny.12 mph73%30.01 "Hg10 mi
9:00 AM72 °FSunny.10 mph69%30.01 "Hg10 mi
8:30 AM70 °FClear.12 mph69%29.98 "Hg10 mi
8:00 AM66 °FClear.6 mph78%29.98 "Hg10 mi
7:30 AM64 °FClear.9 mph88%29.98 "Hg10 mi
7:00 AM64 °FClear.8 mph88%29.98 "Hg10 mi
6:30 AM64 °FClear.7 mph88%29.95 "Hg10 mi
6:00 AM64 °FClear.7 mph88%29.95 "Hg10 mi
5:30 AM64 °FClear.7 mph88%29.95 "Hg10 mi
5:00 AM66 °FClear.5 mph83%29.95 "Hg10 mi
4:30 AM66 °FClear.7 mph83%29.95 "Hg10 mi
4:00 AM66 °FClear.6 mph83%29.95 "Hg10 mi
3:30 AM68 °FClear.6 mph78%29.95 "Hg10 mi
3:00 AM70 °FClear.6 mph73%29.95 "Hg10 mi
2:30 AM70 °FClear.6 mph73%29.95 "Hg10 mi
2:00 AM70 °FClear.5 mph73%29.98 "Hg10 mi
1:30 AM72 °FClear.5 mph69%29.98 "Hg10 mi
1:00 AM72 °FClear.6 mph69%29.98 "Hg10 mi
12:30 AM73 °FClear.5 mph65%29.98 "Hg10 mi
12:00 AM73 °FClear.6 mph65%29.98 "Hg10 mi
11:30 PM
Sat, Aug 27
73 °FClear.5 mph65%29.98 "Hg10 mi
11:00 PM73 °FClear.6 mph65%29.98 "Hg10 mi
10:30 PM73 °FSunny.6 mph65%29.98 "Hg10 mi
10:00 PM73 °FSunny.6 mph61%29.98 "Hg10 mi
9:30 PM75 °FMild.8 mph61%29.98 "HgN/A
9:00 PM77 °FSunny.8 mph57%29.98 "Hg10 mi
8:30 PM82 °FSunny.8 mph48%29.98 "Hg10 mi
8:00 PM90 °FSunny.2 mph36%29.98 "Hg10 mi
Weather by CustomWeather, © 2016

See weather overviewHow to use our weather pages